Regional Weather Roundup
Issued by NWS

Home | Current Version | Previous Version | Graphics & Text | Print | Product List | Glossary On
Versions: 1 2 3 4 5 6 7 8 9 10 11 12 13 14 15 16 17 18 19 20 21 22 23 24 25 26 27 28
000
ASUS45 KBOI 031910
RWRID

IDAHO REGIONAL WEATHER ROUNDUP
NATIONAL WEATHER SERVICE BOISE ID
100 PM MDT TUE MAY 03 2016

NOTE: "FAIR" INDICATES FEW OR NO CLOUDS BELOW 12000 FEET
WITH NO SIGNIFICANT WEATHER AND/OR OBSTRUCTIONS TO VISIBILITY

IDZ012-014-032000-
SOUTHWEST IDAHO


CITY           SKY/WX    TMP DP  RH WIND       PRES   REMARKS
BOISE          SUNNY     76  29  17 SE8G23    30.12F
CALDWELL       SUNNY     75  41  29 E10       30.12F
MOUNTAIN HOME  SUNNY     75  32  21 E12       30.14F
$$

IDZ016-017-032000-
SOUTHCENTRAL IDAHO


CITY           SKY/WX    TMP DP  RH WIND       PRES   REMARKS
BURLEY         SUNNY     69  36  29 E6        30.20F
JEROME         SUNNY     68  34  28 VRB5      30.20F
TWIN FALLS     SUNNY     68  36  30 NE8       30.20F
$$

IDZ019>023-032000-
SOUTHEAST IDAHO


CITY           SKY/WX    TMP DP  RH WIND       PRES   REMARKS
IDAHO FALLS    SUNNY     68  31  25 MISG      30.25F
POCATELLO      SUNNY     69  36  29 N8        30.23F
REXBURG        SUNNY     66  26  22 S5        30.25F
$$

IDZ006-010-011-018-031-032-032000-
CENTRAL IDAHO MOUNTAINS


CITY           SKY/WX    TMP DP  RH WIND       PRES   REMARKS
MCCALL         SUNNY     64  24  21 SE9       30.19F
HAILEY         SUNNY     63  34  34 E12       30.27S
STANLEY          N/A     64  17  16 CALM      30.25F
SALMON         SUNNY     64  30  27 N5        30.16F
CHALLIS        SUNNY     67  24  19 VRB3      30.20F
$$

IDZ002-004-006-007-026-032000-
NORTHERN IDAHO


CITY           SKY/WX    TMP DP  RH WIND       PRES   REMARKS
LEWISTON       SUNNY     77  49  37 NE7       30.04F
LOWELL           N/A     75  43  31 N3        30.05F
COEUR D`ALENE  SUNNY     75  46  35 CALM      30.05F
MULLAN PASS    SUNNY     63  30  28 CALM      30.23F
$$




USA.gov is the U.S. government's official web portal to all federal, state and local government web resources and services.